Regional Weather Roundup
Issued by NWS Sterling, VA

Home | Current Version | Previous Version | Graphics & Text | Print | Product List | Glossary On
Versions: 1 2 3 4 5 6 7 8 9 10 11 12 13 14 15 16 17 18 19 20 21 22 23 24 25 26 27 28
000
ASUS41 KLWX 261310
RWRLWX

REGIONAL WEATHER ROUNDUP
NATIONAL WEATHER SERVICE BALTIMORE MD/WASHINGTON DC
900 AM EDT TUE JUL 26 2016

Note: "FAIR" indicates few or no clouds below 12,000 feet
with no significant weather and/or obstructions to visibility.
 TC=TEMPERATURE CELSIUS

 * =Non NWS site. Station does not report precipitation (e.g. rain,
    snow, etc.), thunder, or fog.

DCZ001-MDZ009-015-VAZ040>042-051-053>054-261400-
WASHINGTON METRO

CITY           SKY/WX    TMP DP  RH WIND       PRES   REMARKS
WASHINGTON NAT PTSUNNY   87  72  60 N9        29.97R HX  93
DULLES         FAIR      85  71  63 NW7       29.98R HX  90
ANDREWS AFB    SUNNY     84  73  69 NW7       29.96S HX  91
FT BELVOIR     FAIR      85  73  66 NW6       29.96S HX  92
COLLEGE PARK*  FAIR      82  72  69 N5        29.96S
LEESBURG*      FAIR      86  73  66 NW10      30.00R HX  93
MANASSAS*      SUNNY     88  72  58 N8        29.98R HX  94
GAITHERSBURG*  MOSUNNY   81  72  74 CALM      30.02S

$$

MDZ006>007-011-014-261400-
BALTIMORE METRO

CITY           SKY/WX    TMP DP  RH WIND       PRES   REMARKS
BWI AIRPORT    PTSUNNY   84  71  65 VRB3      29.96R
MD SCIENCE CTR   N/A     86  71  60 MISG      29.95S HX  91
MARTIN STATE   PTSUNNY   82  75  78 NW3       29.97R
ANNAPOLIS      MOSUNNY   83  74  74 NW6       29.95S
FORT MEADE*    SUNNY     79  75  89 CALM      29.99R

$$

MDZ012-015-019>023-261400-
MARYLAND EASTERN SHORE

CITY           SKY/WX    TMP DP  RH WIND       PRES   REMARKS
OCEAN CITY     MOSUNNY   77  73  87 E5        29.94R
SALISBURY      CLOUDY    81  76  84 NW9       29.94R
BAY BRIDGE AP* MOSUNNY   81  75  83 NW5       29.96R
CAMBRIDGE*     SUNNY     81  75  83 N3        29.95R
EASTON*        MOSUNNY   81  81 100 N5        29.98S HX  91

$$

MDZ017>025-261400-
SOUTHERN MARYLAND

CITY           SKY/WX    TMP DP  RH WIND       PRES   REMARKS
PATUXENT RIVER PTSUNNY   83  75  77 NW7       29.95R HX  90
ST INIGOES     SUNNY     84  77  79 CALM      29.95R HX  94
LEONARDTOWN*   NOT AVBL

$$

MDZ003>005-261400-
NORTH CENTRAL MARYLAND

CITY           SKY/WX    TMP DP  RH WIND       PRES   REMARKS
FREDERICK*     SUNNY     82  75  78 CALM      30.01R
HAGERSTOWN APT MOSUNNY   82  71  69 W7        30.00S

$$

MDZ501>502-261400-
WESTERN MARYLAND

CITY           SKY/WX    TMP DP  RH WIND       PRES   REMARKS
OAKLAND*       CLOUDY    68  68 100 NW5       30.14R FOG
CUMBERLAND*    CLOUDY    79  72  78 CALM      30.06S

$$

VAZ025>031-261400-
SHENANDOAH VALLEY

CITY           SKY/WX    TMP DP  RH WIND       PRES   REMARKS
WINCHESTER*      N/A    N/A N/A N/A MISG        N/A
FRONT ROYAL*   FAIR      81  73  78 CALM      30.01R
LURAY*         FAIR      79  75  89 CALM      30.02S
NEW MARKET*    FAIR     N/A N/A N/A CALM      30.01S
STAUNTON*      FAIR      78  72  81 CALM      30.06S
WAYNESBORO*    FAIR      82  71  71 W3        30.06R

$$

WVZ021-048>050-054>055-261400-
EASTERN WEST VIRGINIA PANHANDLE

CITY           SKY/WX    TMP DP  RH WIND       PRES   REMARKS
MARTINSBURG    FAIR      82  70  66 CALM      30.00R
PETERSBURG*    FAIR      82  73  75 CALM      30.03S

$$

VAZ036>039-050-261400-
CENTRAL FOOTHILLS

CITY           SKY/WX    TMP DP  RH WIND       PRES   REMARKS
CHARLOTTESVILL FAIR      85  74  69 CALM      30.00R HX  92
CULPEPER*      FAIR      83  76  79 CALM      29.99S HX  92
ORANGE*          N/A     86  73  66 CALM      30.01R HX  93
GORDONSVILLE*  FAIR      84  75  75 CALM      29.99R HX  91
WARRENTON*     FAIR      85  69  59 CALM      29.99R

$$

VAZ055>057-261400-
NORTH AND CENTRAL PIEDMONT

CITY           SKY/WX    TMP DP  RH WIND       PRES   REMARKS
FREDERICKSBRG* FAIR      85  74  68 N5        29.96S HX  92
STAFFORD*      FAIR      86  72  62 N5        30.01S HX  92

$$

NCZ024-NYZ072-PAZ021-071-VAZ022-071-261400-
OTHER REGIONAL OBSERVATIONS

CITY           SKY/WX    TMP DP  RH WIND       PRES   REMARKS
NEW YORK CITY  SUNNY     76  69  79 CALM      29.95R
PHILADELPHIA   PTSUNNY   82  72  71 NW9       29.95R
PITTSBURGH     MOSUNNY   77  66  68 N7        30.05R
ROANOKE        FAIR      81  72  74 W5        30.07R
RICHMOND       PTSUNNY   84  75  74 W6        29.97R HX  92
RALEIGH        PTSUNNY   82  73  74 SW10      30.02S

$$

ANZ530>537-261400-
MARINE OBSERVATIONS

STATION/POSITION TIME  TEMP    WIND        PRES
                       AIR SEA DIR/SP/G
                 (UTC) (F)     (DEG/KT/KT) (MB)
THOMAS PT LIGHT  1300   80 82  350/  5/  6 1015.7R
BALT KEY BRIDGE  1242   81     280/  3/  4 1014.2R
COVE POINT       1242   80     360/  8/ 11 1014.7R
LEWISETTA        1242   83 85  340/  7/  8 1013.8R
SOLOMONS ISLAND  1242   80 84  330/  4/  5   N/A
PINEY POINT      1248          340/  5/  6   N/A

$$





USA.gov is the U.S. government's official web portal to all federal, state and local government web resources and services.